COSMOS 2589

Last updated on Mon Sep 07 2026 00:03:03 GMT+0000 (Coordinated Universal Time)

1 64467U 25131A 26249.77140115 -.00000380 00000+0 00000+0 0 9998 2 64467 0.1382 91.7150 0000774 276.1502 10.6803 1.00361169 4376
UTC large
Height (km)
Speed (km/s)
/
Latitude / Longitude
Inclination (degrees)
Orbital Period (minutes)
Azimuth
Elevation
Range (km)
Doppler Factor

Next 0 passes for location: London (51.5072 / 0.1276)

No passes found over London.
COSMOS 2589